Home   Weather   Görlitz   Past weeks
Flag for Germany

Past Weather in Görlitz, Saxony, Germany — Yesterday and Last 2 Weeks

Now
71 °F

Partly sunny.


Feels Like: 77 °F
Forecast: 58 / 52 °F
Wind: 3 mph from South

Location: Liberec

Current Time: Sep 15, 2019 at 4:14:09 pm

Latest Report: Sep 15, 2019 at 3:00 pm


Visibility: 25 mi

Pressure: 30.13 "Hg

Humidity: 49%

Dew Point: 51 °F

Location of GörlitzLocation

Past Weather in Görlitz — Graph

°F

Görlitz Temperature Yesterday

Maximum temperature yesterday: 63 °F (at 4:00 pm)
Minimum temperature yesterday: 46 °F (at 11:00 pm)
Average temperature yesterday: 54 °F

High & Low Weather Summary for the Past Weeks

 TemperatureHumidityPressure
High84 °F (Aug 31, 2:00 pm)96% (Sep 3, 7:00 am)30.56 "Hg (Sep 3, 7:00 am)
Low40 °F (Sep 3, 6:00 am)30% (Sep 3, 1:00 pm)29.73 "Hg (Sep 9, 4:00 pm)
Average59 °F68%30.14 "Hg
* Reported Aug 31 2:00 pm — Sep 15 2:00 pm, Görlitz. Weather by CustomWeather, © 2019

Note: Actual official high and low records may vary slightly from our data, if they occured in-between our weather recording intervals... More about our weather records

Advertising

Görlitz Weather History for the Previous 24 Hours

Scroll right to see more
 ConditionsComfort  
Time TempWeatherWind HumidityBarometerVisibility
2:00 pm
Sun, Sep 15
69 °FPartly sunny.3 mph49%30.16 "Hg25 mi
1:00 pm66 °FPartly sunny.5 mph50%30.19 "Hg28 mi
12:00 pm63 °FScattered clouds.3 mph51%30.23 "Hg28 mi
11:00 am60 °FScattered clouds.3 mph52%30.25 "Hg28 mi
10:00 am59 °FScattered clouds.3 mph51%30.27 "Hg28 mi
9:00 am58 °FScattered clouds.2 mph55%30.28 "Hg25 mi
8:00 am53 °FPassing clouds.2 mph63%30.31 "Hg25 mi
7:00 am49 °FCool.2 mph70%30.32 "Hg22 mi
6:00 am50 °FCool.3 mph70%30.33 "Hg22 mi
5:00 am48 °FCool.2 mph75%30.35 "Hg22 mi
4:00 am49 °FCool.2 mph72%30.37 "Hg22 mi
3:00 am48 °FCool.2 mph81%30.38 "Hg22 mi
2:00 am47 °FCool.2 mph84%30.40 "Hg22 mi
1:00 am44 °FQuite cool.1 mph87%30.43 "Hg17 mi
12:00 am45 °FCool.1 mph87%30.45 "Hg14 mi
11:00 pm
Sat, Sep 14
46 °FCool.1 mph84%30.46 "Hg15 mi
10:00 pm47 °FPassing clouds.1 mph79%30.46 "Hg19 mi
9:00 pm47 °FPassing clouds.No wind71%30.47 "Hg22 mi
8:00 pm51 °FPassing clouds.1 mph65%30.45 "Hg25 mi
7:00 pm54 °FCool.1 mph52%30.45 "Hg22 mi
6:00 pm62 °FRefreshingly cool.1 mph38%30.43 "Hg22 mi
5:00 pm62 °FScattered clouds.3 mph39%30.43 "Hg25 mi
4:00 pm63 °FScattered clouds.3 mph37%30.45 "Hg25 mi
Weather by CustomWeather, © 2019

See weather overview